60P/Tsuchinshan 2 (1999)

Japanese version
Home page
Updated on April 23, 2006

---------------------------------------------------------------------

* Profile

* Pictures

* Orbital Elements

   The following improved orbital elements by Kenji Muraoka, 
  are from 89 observations 1965 to 1999, including 9 Planets, 
  Moon and 5 minor planets perturbations and non-gravitational 
  effect of style II.  The mean residual is +/- 0.85 arc seconds.

      Epoch  =  1999 Mar.  3.0  TT       JDT = 2451240.5
          T  =  1999 Mar.  8.18634       +/- 0.00163 (m.e.) TT
       Peri. =  203.18608                +/- 0.00085
       Node  =  288.20057                +/- 0.00014   (2000.0)
       Incl. =    6.71651                +/- 0.00003
          q  =    1.7703825              +/- 0.0000022 AU
          e  =    0.5063550              +/- 0.0000009
          a  =    3.5863478              +/- 0.0000022 AU
          n  =    0.14511940             +/- 0.00000014
          P  =    6.792                  +/- 0.0000063  years
         A1  =   +0.089                  +/- 0.063
         A2  =   -0.00327                +/- 0.00022

* Finding Charts

* Magnitudes Graph

        m1 = 7.5 + 5 log d + 35 log r(t - 22)

---------------------------------------------------------------------

The orbital elements are calculated by Kenji Muraoka.
The charts are made with StellaNavigator Ver.2.0 for Windows (AstroArts / ASCII).
The magnitudes graphs are made with Comet for Windows.

---------------------------------------------------------------------

Copyright(C) Seiichi Yoshida (comet@aerith.net). All rights reserved.